This demonstration page uses our WeatherBlox Daily Observations layout. Learn more.

40.92945, -100.16068

Hourly Observations for February 2, 2019

Temp ( °F °C ) Dew Point ( °F °C ) Humidity (%) Winds ( mph kmh ) Pressure ( in mb ) Visibility ( mi km ) Precip ( " mm )
12:15 am 00:15 Clear 40 4.7 27 -2.6 60 60 SSW 14 22 29.98 1015 10 16.0934 N/A
12:35 am 00:35 Clear 39 4.1 28 -2.5 63 63 SSW 12 19 30 1016 10 16.0934 N/A
12:55 am 00:55 Clear 39 3.8 28 -2.3 65 65 SSW 12 19 30 1016 10 16.0934 N/A
1:15 am 01:15 Clear 39 3.8 28 -2 66 66 SSW 10 17 30 1016 10 16.0934 N/A
1:35 am 01:35 Clear 39 3.7 29 -1.6 69 69 SSW 5 7 30 1016 10 16.0934 N/A
1:55 am 01:55 Clear 37 2.9 29 -1.5 73 73 SW 5 7 30 1016 10 16.0934 N/A
2:15 am 02:15 Clear 38 3.2 30 -0.9 75 75 SW 12 19 29.99 1015 10 16.0934 N/A
2:35 am 02:35 Clear 37 2.9 30 -1 76 76 SSW 10 17 29.98 1015 10 16.0934 N/A
2:55 am 02:55 Clear 37 3 31 -0.6 77 77 SSW 10 17 29.99 1015 10 16.0934 N/A
3:15 am 03:15 Clear 37 2.6 31 -0.7 79 79 SSW 8 13 29.98 1015 10 16.0934 N/A
3:35 am 03:35 Clear 37 2.6 31 -0.4 81 81 SSW 10 17 29.97 1015 10 16.0934 N/A
3:55 am 03:55 Clear 36 2.4 31 -0.4 82 82 SSW 12 19 29.97 1015 10 16.0934 N/A
4:15 am 04:15 Clear 36 2.1 31 -0.3 84 84 SW 10 17 29.97 1015 10 16.0934 N/A
4:35 am 04:35 Clear 34 1.1 30 -1 86 86 SW 7 11 29.98 1015 10 16.0934 N/A
4:55 am 04:55 Clear 32 0 29 -1.9 87 87 Calm 29.98 1015 10 16.0934 N/A
5:15 am 05:15 Clear 33 0.4 30 -1.1 90 90 SE 3 6 29.97 1015 10 16.0934 N/A
5:35 am 05:35 Clear 34 1 30 -0.9 87 87 SSE 5 7 29.96 1014 10 16.0934 N/A
5:55 am 05:55 Clear 30 -0.9 28 -2.3 90 90 E 7 11 29.98 1015 7 11.26538 N/A
6:15 am 06:15 Clear 30 -1.3 28 -2.5 92 92 SE 6 9 29.98 1015 7 11.26538 N/A
6:35 am 06:35 Clear with Mist and Fog 30 -0.9 29 -1.9 93 93 SSE 8 13 29.98 1015 5 8.0467 N/A
6:55 am 06:55 Cloudy with Fog 32 0 31 -0.5 96 96 S 7 11 29.97 1015 0.5 0.80467 N/A
7:15 am 07:15 Cloudy with Fog 32 0 31 -0.5 96 96 S 6 9 29.96 1014 0.5 0.80467 N/A
7:35 am 07:35 Cloudy with Fog 32 0 31 -0.5 96 96 S 7 11 29.96 1014 0.25 0.402335 N/A
7:55 am 07:55 Cloudy with Fog 32 0 31 -0.7 95 95 S 7 11 29.96 1014 5 8.0467 N/A
8:15 am 08:15 Cloudy with Freezing Fog 32 -0.2 31 -0.8 96 96 S 5 7 29.95 1014 0.25 0.402335 N/A
8:35 am 08:35 Cloudy with Fog 32 -0.1 31 -0.7 96 96 S 5 7 29.95 1014 0.25 0.402335 N/A
8:55 am 08:55 Cloudy with Fog 32 0 31 -0.6 96 96 S 7 11 29.95 1014 0.25 0.402335 N/A
9:15 am 09:15 Cloudy with Fog 32 0 31 -0.5 96 96 S 5 7 29.95 1014 0.25 0.402335 N/A
9:35 am 09:35 Cloudy with Fog 32 0 31 -0.3 98 98 S 6 9 29.95 1014 0.5 0.80467 N/A
9:55 am 09:55 Cloudy with Mist and Fog 32 0.1 32 -0.1 99 99 SSW 6 9 29.95 1014 0.75 1.207005 N/A
10:15 am 10:15 Cloudy with Mist and Fog 33 0.4 32 0 97 97 WSW 3 6 29.94 1014 2 3.21868 N/A
10:35 am 10:35 Cloudy with Mist and Fog 33 0.7 32 0.2 97 97 S 6 9 29.94 1014 3 4.82802 N/A
10:55 am 10:55 Cloudy with Mist and Fog 34 1.1 33 0.5 96 96 SSW 7 11 29.94 1014 5 8.0467 N/A
11:15 am 11:15 Cloudy 35 1.8 34 1 95 95 S 9 15 29.92 1013 10 16.0934 N/A
11:35 am 11:35 Cloudy 37 2.5 33 0.8 89 89 S 8 13 29.9 1013 10 16.0934 N/A
11:55 am 11:55 Cloudy 39 3.7 34 1.1 83 83 S 9 15 29.88 1012 10 16.0934 N/A
12:15 pm 12:15 Mostly Cloudy 40 4.3 34 1.3 81 81 S 9 15 29.87 1012 10 16.0934 N/A
12:35 pm 12:35 Cloudy 40 4.3 34 1.3 81 81 S 10 17 29.86 1011 10 16.0934 N/A
12:55 pm 12:55 Mostly Cloudy 40 4.6 34 1.2 79 79 SSW 10 17 29.84 1011 10 16.0934 N/A
1:15 pm 13:15 Partly Cloudy 40 4.7 34 1.1 78 78 S 10 17 29.83 1010 10 16.0934 N/A
1:35 pm 13:35 Sunny 40 4.7 34 1 77 77 SSW 9 15 29.82 1010 10 16.0934 N/A
1:55 pm 13:55 Sunny 41 4.8 33 0.8 76 76 WSW 7 11 29.81 1009 10 16.0934 N/A
2:15 pm 14:15 Sunny 42 5.5 34 1.1 74 74 WSW 7 11 29.8 1009 10 16.0934 N/A
2:35 pm 14:35 Sunny 43 6.1 34 1.3 72 72 SSW 12 19 29.78 1008 10 16.0934 N/A
2:55 pm 14:55 Sunny 44 6.4 35 1.4 71 71 S 10 17 29.76 1008 10 16.0934 N/A
3:15 pm 15:15 Sunny 46 7.6 35 1.6 66 66 S 13 20 29.73 1007 10 16.0934 N/A
3:35 pm 15:35 Sunny 47 8.5 36 2 64 64 S 14 22 29.72 1007 10 16.0934 N/A
3:55 pm 15:55 Sunny 49 9.4 36 2 60 60 S 10 17 29.72 1006 10 16.0934 0 0
4:15 pm 16:15 Sunny 50 10 36 2 58 58 SSW 10 17 29.71 1006 10 16.0934 N/A
4:35 pm 16:35 Sunny 50 10.1 36 2 57 57 SSW 9 15 29.71 1006 10 16.0934 N/A
4:55 pm 16:55 Sunny 50 9.8 36 2 59 59 SSW 10 17 29.71 1006 10 16.0934 N/A
5:15 pm 17:15 Sunny 49 9.4 35 1.8 59 59 SSW 10 17 29.72 1006 10 16.0934 N/A
5:35 pm 17:35 Sunny 47 8.1 35 1.5 63 63 SSW 8 13 29.73 1007 10 16.0934 N/A
6:15 pm 18:15 Clear 42 5.4 34 0.9 73 73 S 3 6 29.75 1008 10 16.0934 N/A
6:35 pm 18:35 Clear 41 5.2 33 0.7 73 73 SE 3 6 29.75 1007 10 16.0934 N/A
6:55 pm 18:55 Clear 41 5.2 33 0.8 74 74 SSE 5 7 29.76 1008 10 16.0934 N/A
7:15 pm 19:15 Clear 39 3.8 32 0 77 77 SE 3 6 29.76 1008 10 16.0934 N/A
7:35 pm 19:35 Clear 40 4.6 33 0.6 76 76 Calm 29.76 1008 10 16.0934 N/A
7:55 pm 19:55 Clear 32 0 28 -2 87 87 N 5 7 29.81 1009 10 16.0934 N/A
8:15 pm 20:15 Clear 32 -0.2 28 -2.1 87 87 Calm 29.81 1009 10 16.0934 N/A
8:35 pm 20:35 Clear 32 -0.2 28 -2.1 87 87 Calm 29.8 1009 10 16.0934 N/A
8:55 pm 20:55 Clear 33 0.7 27 -2.9 77 77 Calm 29.79 1009 10 16.0934 N/A
9:15 pm 21:15 Clear 31 -0.8 27 -2.8 86 86 N 3 6 29.79 1009 10 16.0934 N/A
9:35 pm 21:35 Clear 32 -0.2 29 -1.9 88 88 Calm 29.79 1009 10 16.0934 N/A
9:55 pm 21:55 Clear 31 -0.5 28 -2.3 88 88 Calm 29.79 1009 10 16.0934 N/A
10:15 pm 22:15 Clear 31 -0.8 28 -2.4 89 89 Calm 29.78 1009 10 16.0934 N/A
10:35 pm 22:35 Clear 33 0.4 29 -1.4 88 88 Calm 29.77 1008 10 16.0934 N/A
10:55 pm 22:55 Clear 30 -1 27 -2.6 89 89 NNE 3 6 29.79 1009 10 16.0934 N/A
11:15 pm 23:15 Clear 31 -0.5 29 -1.8 91 91 N 3 6 29.78 1008 10 16.0934 N/A
11:35 pm 23:35 Clear 30 -1.1 27 -2.8 88 88 NNW 3 6 29.78 1008 10 16.0934 N/A
11:55 pm 23:55 Clear 31 -0.5 29 -1.9 90 90 NNW 6 9 29.76 1008 10 16.0934 N/A

Powered by AerisWeather